Dewpoint
48 51 54 54 55 53 52 54 55 55 55 55 55 54 55 55 56 56 56 55 53 52 51 51 52 53 54 55 57 57 56 55 56 54 55 56 56 57 59 59 60 60 60 61 60 58 59 56 58 62 62 63 63 61 61 61 60 61 62 62 59 59 59
52 51 50 52 52 54 54 53 53 53 55 55 53 54 52 51 53 53 51 49 48 47 45 45 47 48 52 53 54 54 56 56 56 56 53 51 54 54 56 56 55 56 57 59 56 57 58 56 57 58 59 61 61 64 62 62 62 62 62 61 60 59 59
49 50 49 51 53 54 54 54 53 52 52 54 53 50 50 48 50 50 50 50 50 47 47 47 49 51 51 51 53 53 53 53 53 55 54 52 52 53 51 53 52 52 52 53 54 54 55 56 54 56 59 57 57 61 63 63 62 62 61 59 60 59 61
51 50 49 53 52 53 53 52 51 51 51 51 51 51 51 50 52 51 51 50 50 50 49 49 50 48 50 51 51 52 52 52 50 51 51 52 51 52 51 51 50 50 51 50 51 51 52 52 51 48 51 49 51 55 62 62 61 61 61 64 61 61 59
53 51 50 52 53 53 53 50 49 50 52 51 51 50 52 52 53 52 53 52 51 51 49 50 50 50 51 50 50 50 50 51 51 50 50 50 49 47 49 48 50 51 52 51 50 51 51 51 50 49 47 47 47 47 48 55 55 54 54 55 59 62 64
53 51 50 51 52 50 50 50 49 47 49 50 50 51 52 54 53 54 53 52 51 51 51 49 50 50 51 50 50 51 51 51 50 51 49 50 50 48 46 47 45 45 48 49 50 50 50 51 50 46 45 44 46 47 46 47 48 49 49 49 50 51 52
54 51 49 49 52 49 49 50 50 47 48 51 51 52 53 54 53 53 54 53 52 51 51 51 51 50 51 47 50 50 51 50 51 51 50 51 51 50 49 46 47 45 46 47 48 48 48 48 45 47 48 46 47 41 40 41 42 41 43 46 47 47 49
54 50 49 49 52 50 50 52 50 47 48 49 49 52 54 54 54 55 55 54 52 52 51 51 51 51 50 47 48 51 50 50 50 50 50 51 50 49 50 48 47 47 45 43 46 47 45 47 46 45 45 42 42 44 43 40 39 40 40 42 42 43 45
53 52 51 49 51 52 53 51 51 50 49 49 51 52 55 54 55 55 54 54 53 52 51 50 50 49 50 49 48 51 50 49 51 51 50 51 51 51 50 49 47 45 47 45 46 45 45 47 47 47 46 45 42 38 40 40 41 39 42 41 43 44 43
56 54 52 54 55 55 54 53 51 51 51 50 52 54 54 54 55 55 54 54 53 52 51 50 49 49 49 49 49 49 50 50 50 50 50 50 51 50 49 50 47 47 46 49 47 46 47 48 47 46 45 44 44 41 38 38 40 41 42 43 42 45 46
56 56 54 55 57 56 55 54 53 53 52 52 53 55 54 54 55 55 54 54 54 52 51 50 48 48 49 48 49 49 48 50 50 49 49 49 49 49 49 49 47 46 47 48 46 48 48 47 47 47 46 46 46 44 42 41 40 44 42 43 42 40 44
57 56 55 55 57 56 55 54 54 54 55 54 53 53 53 54 54 54 54 53 53 52 50 50 49 49 49 49 48 47 49 49 48 49 49 50 49 49 49 49 48 47 48 48 47 48 49 47 46 45 45 46 46 48 46 44 42 43 46 45 46 45 44
55 55 56 56 56 56 55 55 54 55 56 54 52 52 52 52 53 54 54 53 53 51 50 49 49 49 49 49 48 47 48 48 47 47 47 48 45 47 47 47 45 44 45 44 45 47 45 46 47 43 44 45 45 47 46 44 43 43 44 44 44 44 42
57 55 56 56 57 56 56 55 54 55 55 55 53 52 51 51 51 52 52 52 51 51 50 50 49 49 48 48 47 48 47 47 46 46 47 47 45 46 44 43 43 45 46 45 44 44 43 44 45 44 44 43 42 45 44 44 42 42 44 46 46 44 46
56 55 56 56 57 55 55 55 56 55 56 56 54 53 50 51 51 52 50 50 50 49 49 48 48 48 47 48 48 49 48 46 45 45 46 44 46 45 46 44 40 43 42 41 43 38 38 41 40 39 40 43 40 42 45 43 40 40 42 44 43 44 44
54 56 56 56 56 55 55 56 56 56 55 55 55 54 51 51 51 51 50 51 49 49 48 47 49 48 48 47 46 48 49 46 46 46 46 44 40 42 43 45 43 44 45 44 45 44 44 42 41 39 41 42 41 43 42 42 42 41 41 41 44 42 43
56 56 56 55 55 56 55 55 56 56 55 54 54 54 53 51 51 51 51 50 49 48 48 48 48 47 46 46 46 46 46 46 45 45 44 42 40 42 43 43 44 43 42 42 42 42 40 41 42 41 43 43 45 44 46 46 45 43 42 42 43 39 41
58 57 57 56 56 56 56 56 56 54 55 54 54 54 53 52 52 51 52 49 49 48 48 47 47 47 47 47 46 46 45 44 46 44 44 44 45 42 43 42 40 40 41 41 43 42 41 43 38 39 39 38 39 41 44 45 44 42 42 41 42 43 44
57 58 58 57 57 57 57 57 56 56 54 53 54 53 52 52 51 50 50 49 49 48 47 47 46 45 45 46 47 46 45 45 44 43 43 43 42 43 43 40 40 39 39 40 41 41 43 44 41 42 40 38 36 39 42 42 43 43 42 41 42 42 43
57 57 57 57 57 56 55 56 56 55 55 54 54 53 53 51 52 50 49 50 49 48 48 47 47 47 46 45 46 45 45 45 44 44 43 41 41 40 39 37 39 39 39 39 39 40 41 42 42 43 43 43 41 42 42 42 40 40 41 41 40 41 40
56 57 57 57 57 57 56 56 55 56 55 55 54 53 53 51 52 50 51 50 49 48 48 47 46 46 45 46 46 45 45 45 44 45 44 41 40 38 38 37 36 36 35 36 38 38 39 38 39 41 41 42 42 42 41 40 40 39 39 39 37 37 37
51 51 53 54 55 56 56 56 56 55 55 55 55 54 54 52 52 51 50 50 49 48 48 51 47 49 46 45 45 45 45 43 43 42 41 39 38 37 36 36 36 35 36 38 41 40 40 41 37 33 36 37 38 40 40 40 40 37 37 38 37 38 37
44 46 48 50 51 54 54 55 56 55 55 54 54 54 53 53 52 51 51 51 50 50 51 50 48 44 43 44 44 43 45 43 40 39 39 38 37 37 37 37 38 41 41 40 39 38 38 38 39 37 35 37 37 38 39 39 38 37 38 36 35 36 36
42 43 45 48 49 49 52 55 55 54 53 53 54 54 53 52 52 52 51 52 51 52 50 49 41 39 39 40 43 44 41 40 39 38 37 37 37 37 36 33 35 38 42 41 40 38 37 38 38 38 39 40 39 38 38 37 37 39 37 36 37 37 36
39 41 42 42 45 48 50 52 54 54 55 54 54 55 54 52 53 51 51 50 52 50 50 41 38 37 36 36 38 40 40 39 38 37 36 36 35 35 35 35 36 37 38 37 37 38 39 38 37 37 37 37 37 38 38 38 36 36 37 37 37 37 37
38 39 42 43 45 49 49 50 51 52 53 55 54 53 53 53 52 52 51 50 50 49 48 38 37 36 36 36 36 37 36 37 36 36 36 36 35 35 35 34 35 37 37 43 37 37 38 39 39 38 38 38 38 37 36 35 36 39 37 37 37 37 37
41 42 43 45 47 46 48 49 51 52 53 54 53 53 54 53 53 52 51 50 48 47 43 38 36 36 36 35 34 36 36 37 37 35 34 34 36 35 35 35 34 35 36 38 38 38 38 38 39 39 41 40 39 39 37 36 36 36 38 37 36 35 37
42 43 44 44 47 46 47 49 50 51 51 51 52 51 51 52 52 51 50 49 47 45 41 37 36 35 35 34 34 35 38 38 36 36 36 36 36 36 36 37 38 37 37 38 38 38 38 37 36 38 38 38 38 37 38 38 40 39 39 39 38 37 37
42 42 43 45 46 47 48 49 50 51 50 50 50 50 50 51 52 51 49 47 46 42 39 36 35 35 35 34 33 35 37 37 36 35 34 34 34 33 33 35 36 36 36 37 37 35 36 36 35 35 36 36 36 36 37 37 36 37 38 38 39 39 39
43 43 43 44 44 47 48 49 49 49 50 49 48 48 50 51 50 49 47 45 43 38 37 36 35 35 34 33 34 36 36 33 32 34 34 33 33 34 36 35 36 35 36 36 36 34 34 36 35 35 34 35 35 35 34 35 35 35 36 36 36 36 35
42 43 43 43 44 46 48 49 49 49 48 47 47 48 50 50 49 46 44 42 38 36 36 36 34 34 33 33 36 34 32 31 31 31 31 33 33 33 34 39 36 34 36 37 35 34 34 36 34 33 33 32 32 33 33 34 34 35 34 35 35 35 35
43 43 43 44 45 46 47 48 48 48 47 48 48 49 49 48 46 44 41 39 39 36 33 34 34 33 34 34 35 33 30 27 28 29 29 29 32 33 33 36 39 37 36 35 34 34 34 34 33 33 33 32 32 32 32 33 32 32 33 34 34 35 36
44 44 44 44 45 45 46 47 48 48 48 48 48 48 47 45 44 42 41 38 38 36 32 32 34 34 34 34 35 35 29 27 27 29 29 28 30 31 32 33 35 35 34 34 34 34 34 34 34 32 32 31 31 31 32 33 33 33 33 33 33 34 34
42 43 43 43 43 44 45 46 47 48 48 48 47 46 45 44 41 40 40 40 38 35 34 32 34 34 35 35 34 34 29 28 29 28 28 27 28 30 31 32 33 32 33 33 34 33 34 34 34 33 32 31 32 32 33 32 32 33 33 33 33 33 32
43 44 44 44 44 44 45 46 48 49 47 46 45 44 44 43 43 41 40 38 38 37 37 37 32 34 35 35 35 35 32 29 32 29 28 27 29 32 32 32 33 33 33 33 33 33 33 33 33 33 32 31 32 32 31 31 31 31 31 31 30 30 31
43 45 44 44 44 45 46 46 48 47 45 43 42 41 41 40 39 40 39 39 38 37 35 34 35 35 34 35 35 35 34 33 32 33 31 31 32 32 33 34 34 35 33 33 33 32 32 32 32 31 31 31 32 32 32 31 31 31 31 31 31 31 30
43 44 43 43 44 46 47 47 46 45 42 41 40 40 38 37 36 36 36 35 34 32 34 34 34 34 36 34 34 34 33 33 33 34 34 33 33 33 33 34 33 32 32 32 32 32 32 32 31 32 32 32 32 32 32 31 30 31 31 31 30 30 30